| time (UTC) | temp F | wind direction | speed knots | gust knots | rain 1hr in | rain 24hr in | rain mn in | humidity % | barometer mb |
| 20260509061937 | 73 | 203 | 0.9 | 0.9 | 0.00 | 0.00 | 0.00 | 96 | 1014.0 |
| 20260509061434 | 73 | 223 | 0.9 | 0.9 | 0.00 | 0.00 | 0.00 | 96 | 1013.9 |
| 20260509060931 | 73 | 211 | 0.0 | 0.0 | 0.00 | 0.00 | 0.00 | 97 | 1013.8 |
| 20260509060429 | 73 | 190 | 0.9 | 0.9 | 0.00 | 0.00 | 0.00 | 97 | 1013.7 |
| 20260509055923 | 73 | 210 | 1.7 | 2.6 | 0.00 | 0.00 | 0.00 | 97 | 1013.8 |
| 20260509055419 | 73 | 210 | 0.0 | 0.0 | 0.00 | 0.00 | 0.00 | 97 | 1013.4 |
| 20260509054916 | 73 | 197 | 0.9 | 1.7 | 0.00 | 0.00 | 0.00 | 97 | 1013.3 |
| 20260509054413 | 73 | 210 | 1.7 | 1.7 | 0.00 | 0.00 | 0.00 | 97 | 1013.5 |
| 20260509053911 | 73 | 207 | 1.7 | 1.7 | 0.00 | 0.00 | 0.00 | 97 | 1013.6 |
| 20260509053409 | 72 | 222 | 0.0 | 0.9 | 0.00 | 0.00 | 0.00 | 97 | 1013.7 |
| 20260509052906 | 72 | 207 | 0.0 | 0.9 | 0.00 | 0.00 | 0.00 | 97 | 1013.6 |
| 20260509052403 | 72 | 169 | 2.6 | 2.6 | 0.00 | 0.00 | 0.00 | 97 | 1013.1 |
| 20260509051901 | 72 | 209 | 3.5 | 5.2 | 0.00 | 0.00 | 0.00 | 97 | 1013.1 |
| 20260509051359 | 72 | 206 | 3.5 | 6.1 | 0.00 | 0.00 | 0.00 | 97 | 1012.8 |
| 20260509050855 | 72 | 220 | 0.9 | 1.7 | 0.00 | 0.00 | 0.00 | 97 | 1012.7 |
| 20260509050352 | 72 | 204 | 2.6 | 2.6 | 0.00 | 0.00 | 0.00 | 96 | 1012.9 |
| 20260509045849 | 72 | 211 | 0.9 | 1.7 | 0.00 | 0.00 | 0.00 | 96 | 1012.8 |
| 20260509045346 | 72 | 197 | 1.7 | 1.7 | 0.00 | 0.00 | 0.00 | 96 | 1013.0 |
| 20260509044843 | 72 | 155 | 1.7 | 1.7 | 0.00 | 0.00 | 0.00 | 96 | 1012.9 |
| 20260509044341 | 72 | 194 | 1.7 | 1.7 | 0.00 | 0.00 | 0.00 | 95 | 1013.1 |
| 20260509043837 | 73 | 208 | 1.7 | 1.7 | 0.00 | 0.00 | 0.00 | 95 | 1013.0 |
| 20260509043333 | 73 | 199 | 0.9 | 0.9 | 0.00 | 0.00 | 0.00 | 95 | 1013.1 |
| 20260509042829 | 73 | 208 | 2.6 | 4.3 | 0.00 | 0.00 | 0.00 | 95 | 1013.2 |
| 20260509042326 | 73 | 181 | 1.7 | 2.6 | 0.00 | 0.00 | 0.00 | 94 | 1012.8 |
| 20260509041822 | 73 | 165 | 2.6 | 2.6 | 0.00 | 0.00 | 0.00 | 94 | 1013.0 |
| 20260509041319 | 73 | 220 | 0.9 | 1.7 | 0.00 | 0.00 | 0.00 | 94 | 1013.3 |
| 20260509040818 | 73 | 197 | 0.0 | 0.9 | 0.00 | 0.00 | 0.00 | 94 | 1013.0 |
| 20260509040315 | 73 | 160 | 2.6 | 4.3 | 0.00 | 0.00 | 0.00 | 94 | 1013.2 |
| 20260509035812 | 73 | 201 | 2.6 | 2.6 | 0.00 | 0.00 | 0.00 | 94 | 1013.0 |
| 20260509035309 | 73 | 149 | 2.6 | 2.6 | 0.00 | 0.00 | 0.00 | 94 | 1013.1 |
| 20260509034805 | 73 | 201 | 1.7 | 1.7 | 0.00 | 0.00 | 0.00 | 93 | 1013.4 |
| 20260509034303 | 73 | 129 | 2.6 | 5.2 | 0.00 | 0.00 | 0.00 | 94 | 1013.2 |
| 20260509033759 | 73 | 196 | 0.9 | 0.9 | 0.00 | 0.00 | 0.00 | 93 | 1013.3 |
| 20260509033257 | 73 | 206 | 0.9 | 0.9 | 0.00 | 0.00 | 0.00 | 93 | 1013.3 |
| 20260509032754 | 73 | 196 | 0.0 | 0.9 | 0.00 | 0.00 | 0.00 | 93 | 1013.1 |
| 20260509032250 | 73 | 196 | 0.0 | 0.0 | 0.00 | 0.00 | 0.00 | 93 | 1013.2 |
| 20260509031748 | 73 | 196 | 0.0 | 0.0 | 0.00 | 0.00 | 0.00 | 92 | 1013.4 |
| 20260509031245 | 73 | 196 | 0.0 | 0.0 | 0.00 | 0.00 | 0.00 | 92 | 1013.4 |
| 20260509030743 | 73 | 195 | 0.0 | 0.9 | 0.00 | 0.00 | 0.00 | 92 | 1013.5 |
| 20260509030241 | 74 | 196 | 0.0 | 0.9 | 0.00 | 0.00 | 0.00 | 91 | 1013.0 |
| 20260509025737 | 74 | 196 | 0.0 | 0.0 | 0.00 | 0.00 | 0.00 | 91 | 1013.1 |
| 20260509025233 | 74 | 195 | 0.0 | 0.9 | 0.00 | 0.00 | 0.00 | 91 | 1013.1 |
| 20260509024728 | 74 | 199 | 2.6 | 2.6 | 0.00 | 0.00 | 0.00 | 91 | 1012.7 |
| 20260509024224 | 74 | 171 | 0.9 | 1.7 | 0.00 | 0.00 | 0.00 | 91 | 1012.7 |
| 20260509023722 | 74 | 191 | 0.9 | 0.9 | 0.00 | 0.00 | 0.00 | 90 | 1012.4 |
| 20260509023219 | 74 | 214 | 0.9 | 0.9 | 0.00 | 0.00 | 0.00 | 90 | 1012.7 |
| 20260509022715 | 75 | 215 | 0.9 | 0.9 | 0.00 | 0.00 | 0.00 | 90 | 1012.6 |
| 20260509022213 | 75 | 215 | 0.9 | 0.9 | 0.00 | 0.00 | 0.00 | 89 | 1012.6 |
| 20260509021710 | 75 | 215 | 1.7 | 1.7 | 0.00 | 0.00 | 0.00 | 89 | 1012.6 |
| 20260509021207 | 75 | 216 | 0.9 | 0.9 | 0.00 | 0.00 | 0.00 | 88 | 1012.4 |
| 20260509020705 | 75 | 217 | 1.7 | 1.7 | 0.00 | 0.00 | 0.00 | 88 | 1012.4 |
| 20260509020202 | 76 | 218 | 0.9 | 0.9 | 0.00 | 0.00 | 0.00 | 87 | 1012.2 |
| 20260509015700 | 76 | 216 | 0.9 | 0.9 | 0.00 | 0.00 | 0.00 | 87 | 1012.3 |
| 20260509015158 | 76 | 177 | 0.0 | 0.9 | 0.00 | 0.00 | 0.00 | 86 | 1012.0 |
| 20260509014654 | 76 | 175 | 1.7 | 1.7 | 0.00 | 0.00 | 0.00 | 86 | 1011.9 |
| 20260509014150 | 76 | 201 | 0.9 | 1.7 | 0.00 | 0.00 | 0.00 | 86 | 1012.1 |
| 20260509013648 | 76 | 195 | 1.7 | 1.7 | 0.00 | 0.00 | 0.00 | 86 | 1012.1 |
| 20260509013143 | 77 | 178 | 0.9 | 0.9 | 0.00 | 0.00 | 0.00 | 86 | 1011.9 |
| 20260509012640 | 77 | 198 | 2.6 | 4.3 | 0.00 | 0.00 | 0.00 | 85 | 1012.1 |
| 20260509012137 | 77 | 197 | 1.7 | 1.7 | 0.00 | 0.00 | 0.00 | 85 | 1011.8 |
| 20260509011635 | 77 | 197 | 0.9 | 1.7 | 0.00 | 0.00 | 0.00 | 85 | 1011.9 |
| 20260509011132 | 77 | 158 | 3.5 | 4.3 | 0.00 | 0.00 | 0.00 | 85 | 1011.8 |
| 20260509010630 | 77 | 178 | 1.7 | 2.6 | 0.00 | 0.00 | 0.00 | 85 | 1011.9 |
| 20260509010126 | 77 | 186 | 3.5 | 4.3 | 0.00 | 0.00 | 0.00 | 84 | 1011.8 |
| 20260509005624 | 77 | 185 | 0.9 | 1.7 | 0.00 | 0.00 | 0.00 | 84 | 1011.9 |
| 20260509005120 | 77 | 193 | 1.7 | 1.7 | 0.00 | 0.00 | 0.00 | 84 | 1012.2 |
| 20260509004616 | 77 | 193 | 1.7 | 1.7 | 0.00 | 0.00 | 0.00 | 83 | 1012.0 |
| 20260509004113 | 78 | 210 | 0.0 | 0.0 | 0.00 | 0.00 | 0.00 | 83 | 1011.8 |
| 20260509003611 | 78 | 210 | 0.0 | 0.0 | 0.00 | 0.00 | 0.00 | 82 | 1011.7 |
| 20260509003108 | 78 | 209 | 0.9 | 0.9 | 0.00 | 0.00 | 0.00 | 82 | 1011.8 |
| 20260509002606 | 78 | 166 | 1.7 | 1.7 | 0.00 | 0.00 | 0.00 | 82 | 1011.7 |
| 20260509002103 | 78 | 164 | 1.7 | 1.7 | 0.00 | 0.00 | 0.00 | 82 | 1012.0 |
| 20260509001601 | 78 | 186 | 0.9 | 1.7 | 0.00 | 0.00 | 0.00 | 82 | 1012.0 |
| 20260509001056 | 78 | 183 | 1.7 | 1.7 | 0.00 | 0.00 | 0.00 | 82 | 1011.7 |
| 20260509000555 | 78 | 139 | 1.7 | 2.6 | 0.00 | 0.00 | 0.00 | 81 | 1012.1 |
| 20260509000050 | 78 | 214 | 0.9 | 1.7 | 0.00 | 0.00 | 0.00 | 81 | 1011.9 |
| 20260508235548 | 78 | 213 | 2.6 | 2.6 | 0.00 | 0.00 | 0.00 | 81 | 1012.0 |
| 20260508235044 | 78 | 159 | 2.6 | 4.3 | 0.00 | 0.00 | 0.00 | 81 | 1011.9 |
| 20260508234542 | 78 | 192 | 0.9 | 1.7 | 0.00 | 0.00 | 0.00 | 80 | 1011.8 |
| 20260508234038 | 78 | 184 | 0.9 | 0.9 | 0.00 | 0.00 | 0.00 | 80 | 1011.9 |
| 20260508233538 | 78 | 209 | 1.7 | 1.7 | 0.00 | 0.00 | 0.00 | 80 | 1012.0 |
| 20260508233035 | 79 | 197 | 2.6 | 4.3 | 0.00 | 0.00 | 0.00 | 79 | 1012.0 |
| 20260508232531 | 79 | 180 | 3.5 | 4.3 | 0.00 | 0.00 | 0.00 | 79 | 1011.9 |
| 20260508232029 | 79 | 218 | 1.7 | 1.7 | 0.00 | 0.00 | 0.00 | 79 | 1011.7 |
| 20260508231526 | 79 | 188 | 0.9 | 1.7 | 0.00 | 0.00 | 0.00 | 79 | 1011.8 |
| 20260508231023 | 79 | 197 | 3.5 | 4.3 | 0.00 | 0.00 | 0.00 | 79 | 1011.7 |
| 20260508230520 | 79 | 167 | 2.6 | 2.6 | 0.00 | 0.00 | 0.00 | 79 | 1011.9 |
| 20260508230017 | 79 | 192 | 2.6 | 2.6 | 0.00 | 0.00 | 0.00 | 79 | 1011.7 |
| 20260508225514 | 79 | 215 | 3.5 | 4.3 | 0.00 | 0.00 | 0.00 | 79 | 1011.8 |
| 20260508225010 | 80 | 222 | 3.5 | 5.2 | 0.00 | 0.00 | 0.00 | 78 | 1012.0 |
| 20260508224508 | 79 | 209 | 1.7 | 1.7 | 0.00 | 0.00 | 0.00 | 79 | 1011.8 |
| 20260508224005 | 79 | 190 | 5.2 | 7.0 | 0.00 | 0.00 | 0.00 | 78 | 1011.6 |
| 20260508223503 | 79 | 169 | 2.6 | 2.6 | 0.00 | 0.00 | 0.00 | 78 | 1011.9 |
| 20260508223000 | 79 | 169 | 3.5 | 5.2 | 0.00 | 0.00 | 0.00 | 78 | 1011.9 |
| 20260508222458 | 79 | 207 | 0.9 | 1.7 | 0.00 | 0.00 | 0.00 | 79 | 1011.8 |
| 20260508221954 | 79 | 215 | 3.5 | 4.3 | 0.00 | 0.00 | 0.00 | 79 | 1012.1 |
| 20260508221450 | 79 | 174 | 0.9 | 1.7 | 0.00 | 0.00 | 0.00 | 79 | 1011.8 |
| 20260508220946 | 79 | 172 | 3.5 | 4.3 | 0.00 | 0.00 | 0.00 | 78 | 1011.6 |
| 20260508220443 | 80 | 187 | 2.6 | 2.6 | 0.00 | 0.00 | 0.00 | 78 | 1011.9 |
| 20260508215939 | 79 | 190 | 2.6 | 2.6 | 0.00 | 0.00 | 0.00 | 78 | 1012.0 |
| 20260508215436 | 79 | 153 | 2.6 | 5.2 | 0.00 | 0.00 | 0.00 | 78 | 1011.9 |
| 20260508214933 | 80 | 170 | 4.3 | 7.0 | 0.00 | 0.00 | 0.00 | 77 | 1012.2 |
| 20260508214431 | 80 | 208 | 2.6 | 4.3 | 0.00 | 0.00 | 0.00 | 77 | 1012.2 |
| 20260508213926 | 79 | 173 | 3.5 | 5.2 | 0.00 | 0.00 | 0.00 | 77 | 1012.1 |
| 20260508213424 | 79 | 196 | 2.6 | 4.3 | 0.00 | 0.00 | 0.00 | 77 | 1012.2 |
| 20260508212919 | 79 | 205 | 3.5 | 4.3 | 0.00 | 0.00 | 0.00 | 77 | 1012.2 |
| 20260508212416 | 79 | 146 | 2.6 | 4.3 | 0.00 | 0.00 | 0.00 | 77 | 1012.1 |
| 20260508211912 | 79 | 175 | 0.9 | 1.7 | 0.00 | 0.00 | 0.00 | 77 | 1012.3 |
| 20260508211408 | 79 | 183 | 1.7 | 1.7 | 0.00 | 0.00 | 0.00 | 77 | 1012.4 |
| 20260508210906 | 79 | 175 | 1.7 | 2.6 | 0.00 | 0.00 | 0.00 | 77 | 1012.8 |
| 20260508210402 | 79 | 198 | 1.7 | 1.7 | 0.00 | 0.00 | 0.00 | 77 | 1012.9 |
| 20260508205858 | 79 | 203 | 1.7 | 1.7 | 0.00 | 0.00 | 0.00 | 76 | 1012.9 |
| 20260508205355 | 79 | 199 | 1.7 | 2.6 | 0.00 | 0.00 | 0.00 | 76 | 1012.8 |
| 20260508204851 | 79 | 203 | 1.7 | 1.7 | 0.00 | 0.00 | 0.00 | 77 | 1013.0 |
| 20260508204348 | 79 | 172 | 3.5 | 4.3 | 0.00 | 0.00 | 0.00 | 76 | 1013.1 |
| 20260508203844 | 79 | 172 | 2.6 | 2.6 | 0.00 | 0.00 | 0.00 | 76 | 1013.1 |
| 20260508203340 | 79 | 206 | 1.7 | 1.7 | 0.00 | 0.00 | 0.00 | 76 | 1013.1 |
| 20260508202836 | 79 | 216 | 0.9 | 0.9 | 0.00 | 0.00 | 0.00 | 75 | 1013.2 |
| 20260508202334 | 79 | 174 | 0.9 | 0.9 | 0.00 | 0.00 | 0.00 | 76 | 1013.2 |
| 20260508201831 | 79 | 177 | 1.7 | 1.7 | 0.00 | 0.00 | 0.00 | 75 | 1013.3 |
| 20260508201328 | 80 | 180 | 2.6 | 2.6 | 0.00 | 0.00 | 0.00 | 75 | 1013.3 |
| 20260508200824 | 80 | 177 | 1.7 | 2.6 | 0.00 | 0.00 | 0.00 | 74 | 1013.4 |
| 20260508200321 | 79 | 176 | 0.0 | 0.9 | 0.00 | 0.00 | 0.00 | 76 | 1013.5 |
| 20260508195817 | 79 | 175 | 1.7 | 1.7 | 0.00 | 0.00 | 0.00 | 74 | 1013.4 |
| 20260508195314 | 80 | 230 | 0.9 | 0.9 | 0.00 | 0.00 | 0.00 | 75 | 1013.6 |
| 20260508194810 | 79 | 199 | 0.9 | 1.7 | 0.00 | 0.00 | 0.00 | 75 | 1013.5 |
| 20260508194307 | 79 | 199 | 2.6 | 4.3 | 0.00 | 0.00 | 0.00 | 73 | 1013.6 |
| 20260508193804 | 80 | 199 | 1.7 | 1.7 | 0.00 | 0.00 | 0.00 | 74 | 1013.9 |
| 20260508193301 | 79 | 199 | 0.0 | 0.0 | 0.00 | 0.00 | 0.00 | 75 | 1013.6 |
| 20260508192757 | 78 | 197 | 0.9 | 2.6 | 0.00 | 0.00 | 0.00 | 75 | 1013.9 |
| 20260508192254 | 78 | 195 | 0.9 | 0.9 | 0.00 | 0.00 | 0.00 | 77 | 1013.9 |
| 20260508191751 | 77 | 201 | 3.5 | 4.3 | 0.00 | 0.00 | 0.00 | 76 | 1014.1 |
| 20260508191249 | 77 | 186 | 2.6 | 4.3 | 0.00 | 0.00 | 0.00 | 76 | 1014.2 |
| 20260508190746 | 78 | 174 | 1.7 | 1.7 | 0.00 | 0.00 | 0.00 | 75 | 1014.1 |
| 20260508190242 | 78 | 147 | 2.6 | 4.3 | 0.00 | 0.00 | 0.00 | 75 | 1014.0 |
| 20260508185738 | 79 | 201 | 1.7 | 2.6 | 0.00 | 0.00 | 0.00 | 73 | 1014.2 |
| 20260508185236 | 79 | 201 | 1.7 | 2.6 | 0.00 | 0.00 | 0.00 | 74 | 1014.5 |
| 20260508184733 | 78 | 216 | 0.0 | 0.0 | 0.00 | 0.00 | 0.00 | 76 | 1014.2 |
| 20260508184230 | 79 | 235 | 0.0 | 0.9 | 0.00 | 0.00 | 0.00 | 72 | 1014.1 |
| 20260508183727 | 78 | 234 | 0.0 | 0.9 | 0.00 | 0.00 | 0.00 | 74 | 1014.3 |
| 20260508183223 | 79 | 235 | 0.9 | 0.9 | 0.00 | 0.00 | 0.00 | 73 | 1014.3 |
| 20260508182719 | 79 | 236 | 0.0 | 0.0 | 0.00 | 0.00 | 0.00 | 73 | 1014.5 |
| 20260508182216 | 79 | 235 | 0.0 | 0.9 | 0.00 | 0.00 | 0.00 | 71 | 1014.7 |
| 20260508181712 | 78 | 210 | 0.0 | 0.0 | 0.00 | 0.00 | 0.00 | 75 | 1014.7 |
| 20260508181209 | 78 | 263 | 0.9 | 0.9 | 0.00 | 0.00 | 0.00 | 73 | 1015.0 |
| 20260508180706 | 78 | 208 | 0.0 | 0.9 | 0.00 | 0.00 | 0.00 | 73 | 1015.0 |
| 20260508180203 | 79 | 194 | 3.5 | 4.3 | 0.00 | 0.00 | 0.00 | 72 | 1014.9 |
| 20260508175659 | 80 | 190 | 0.9 | 0.9 | 0.00 | 0.00 | 0.00 | 71 | 1015.0 |
| 20260508175156 | 80 | 191 | 0.0 | 0.9 | 0.00 | 0.00 | 0.00 | 70 | 1015.0 |
| 20260508174654 | 80 | 191 | 0.0 | 0.0 | 0.00 | 0.00 | 0.00 | 71 | 1015.0 |
| 20260508174150 | 80 | 190 | 0.9 | 0.9 | 0.00 | 0.00 | 0.00 | 69 | 1015.0 |
| 20260508173647 | 80 | 233 | 0.0 | 0.0 | 0.00 | 0.00 | 0.00 | 73 | 1015.3 |
| 20260508173143 | 79 | 235 | 0.0 | 0.0 | 0.00 | 0.00 | 0.00 | 71 | 1015.2 |
| 20260508172640 | 78 | 183 | 0.9 | 0.9 | 0.00 | 0.00 | 0.00 | 70 | 1015.2 |
| 20260508172137 | 78 | 283 | 0.9 | 1.7 | 0.00 | 0.00 | 0.00 | 70 | 1015.4 |
| 20260508171633 | 77 | 231 | 0.9 | 0.9 | 0.00 | 0.00 | 0.00 | 72 | 1015.6 |
| 20260508171130 | 76 | 199 | 0.9 | 0.9 | 0.00 | 0.00 | 0.00 | 76 | 1015.6 |
| 20260508170627 | 75 | 203 | 0.9 | 1.7 | 0.00 | 0.00 | 0.00 | 74 | 1015.9 |
| 20260508170125 | 76 | 198 | 1.7 | 2.6 | 0.00 | 0.00 | 0.00 | 73 | 1015.9 |
| 20260508165622 | 74 | 292 | 1.7 | 1.7 | 0.00 | 0.00 | 0.00 | 76 | 1015.7 |
| 20260508165118 | 75 | 292 | 0.9 | 1.7 | 0.00 | 0.00 | 0.00 | 75 | 1016.0 |
| 20260508164614 | 75 | 256 | 0.0 | 0.0 | 0.00 | 0.00 | 0.00 | 72 | 1015.9 |
| 20260508164112 | 76 | 232 | 0.0 | 0.0 | 0.00 | 0.00 | 0.00 | 72 | 1016.0 |
| 20260508163609 | 75 | 234 | 0.0 | 0.9 | 0.00 | 0.00 | 0.00 | 73 | 1016.0 |
| 20260508163106 | 74 | 233 | 0.0 | 0.0 | 0.00 | 0.00 | 0.00 | 74 | 1016.1 |
| 20260508162602 | 73 | 234 | 0.0 | 0.0 | 0.00 | 0.00 | 0.00 | 75 | 1016.2 |
| 20260508162100 | 74 | 205 | 0.0 | 0.0 | 0.00 | 0.00 | 0.00 | 73 | 1016.2 |
| 20260508161556 | 73 | 206 | 0.0 | 0.9 | 0.00 | 0.00 | 0.00 | 76 | 1016.4 |
| 20260508161054 | 71 | 205 | 0.0 | 0.0 | 0.00 | 0.00 | 0.00 | 78 | 1016.5 |
| 20260508160552 | 71 | 205 | 0.0 | 0.0 | 0.00 | 0.00 | 0.00 | 78 | 1016.4 |
| 20260508160049 | 70 | 205 | 0.9 | 0.9 | 0.00 | 0.00 | 0.00 | 77 | 1016.5 |
| 20260508155546 | 70 | 204 | 0.0 | 0.0 | 0.00 | 0.00 | 0.00 | 78 | 1016.6 |
| 20260508155043 | 70 | 203 | 0.9 | 1.7 | 0.00 | 0.00 | 0.00 | 78 | 1016.6 |
| 20260508154540 | 69 | 204 | 0.0 | 0.9 | 0.00 | 0.00 | 0.00 | 79 | 1016.7 |
| 20260508154037 | 69 | 203 | 0.9 | 0.9 | 0.00 | 0.00 | 0.00 | 80 | 1016.7 |
| 20260508153533 | 68 | 219 | 0.9 | 1.7 | 0.00 | 0.00 | 0.00 | 80 | 1016.7 |
| 20260508153030 | 67 | 203 | 0.9 | 0.9 | 0.00 | 0.00 | 0.00 | 81 | 1016.8 |
| 20260508152527 | 67 | 203 | 0.0 | 0.0 | 0.00 | 0.00 | 0.00 | 82 | 1016.8 |
| 20260508152022 | 67 | 203 | 0.0 | 0.0 | 0.00 | 0.00 | 0.00 | 82 | 1017.0 |
| 20260508151520 | 66 | 203 | 0.0 | 0.0 | 0.00 | 0.00 | 0.00 | 82 | 1017.1 |
| 20260508151016 | 66 | 203 | 0.0 | 0.0 | 0.00 | 0.00 | 0.00 | 82 | 1017.2 |
| 20260508150514 | 66 | 203 | 0.0 | 0.9 | 0.00 | 0.00 | 0.00 | 83 | 1017.1 |
| 20260508150009 | 66 | 205 | 1.7 | 1.7 | 0.00 | 0.00 | 0.00 | 82 | 1017.1 |
| 20260508145506 | 66 | 203 | 0.0 | 0.0 | 0.00 | 0.00 | 0.00 | 83 | 1017.2 |
| 20260508145002 | 66 | 205 | 1.7 | 1.7 | 0.00 | 0.00 | 0.00 | 82 | 1017.1 |
| 20260508144500 | 67 | 203 | 0.9 | 1.7 | 0.00 | 0.00 | 0.00 | 82 | 1017.1 |
| 20260508143957 | 66 | 221 | 0.9 | 1.7 | 0.00 | 0.00 | 0.00 | 81 | 1017.1 |
| 20260508143455 | 66 | 220 | 1.7 | 1.7 | 0.00 | 0.00 | 0.00 | 82 | 1017.0 |
| 20260508142951 | 66 | 220 | 0.9 | 0.9 | 0.00 | 0.00 | 0.00 | 82 | 1017.1 |
| 20260508142448 | 66 | 220 | 0.9 | 0.9 | 0.00 | 0.00 | 0.00 | 83 | 1017.0 |
| 20260508141944 | 66 | 221 | 0.9 | 1.7 | 0.00 | 0.00 | 0.00 | 82 | 1016.8 |
| 20260508141441 | 66 | 222 | 0.0 | 0.0 | 0.00 | 0.00 | 0.00 | 82 | 1016.8 |
| 20260508140939 | 65 | 221 | 1.7 | 1.7 | 0.00 | 0.00 | 0.00 | 82 | 1016.8 |
| 20260508140436 | 65 | 222 | 0.0 | 0.0 | 0.00 | 0.00 | 0.00 | 84 | 1017.0 |
| 20260508135931 | 65 | 223 | 0.0 | 0.0 | 0.00 | 0.00 | 0.00 | 83 | 1016.8 |
| 20260508135428 | 64 | 222 | 0.9 | 0.9 | 0.00 | 0.00 | 0.00 | 84 | 1016.8 |
| 20260508134925 | 64 | 223 | 0.9 | 0.9 | 0.00 | 0.00 | 0.00 | 84 | 1017.1 |
| 20260508134421 | 64 | 222 | 1.7 | 1.7 | 0.00 | 0.00 | 0.00 | 85 | 1017.3 |
| 20260508133918 | 64 | 223 | 0.0 | 0.9 | 0.00 | 0.00 | 0.00 | 85 | 1017.2 |
| 20260508133416 | 64 | 223 | 0.0 | 0.9 | 0.00 | 0.00 | 0.00 | 86 | 1017.1 |
| 20260508132912 | 64 | 223 | 0.0 | 0.0 | 0.00 | 0.00 | 0.00 | 86 | 1017.2 |
| 20260508132410 | 64 | 223 | 0.9 | 1.7 | 0.00 | 0.00 | 0.00 | 85 | 1017.2 |
| 20260508131907 | 63 | 224 | 0.9 | 0.9 | 0.00 | 0.00 | 0.00 | 85 | 1017.4 |
| 20260508131402 | 63 | 224 | 0.0 | 0.0 | 0.00 | 0.00 | 0.00 | 86 | 1017.4 |
| 20260508130859 | 63 | 224 | 0.0 | 0.0 | 0.00 | 0.00 | 0.00 | 86 | 1017.3 |
| 20260508130356 | 63 | 235 | 0.0 | 0.0 | 0.00 | 0.00 | 0.00 | 86 | 1017.2 |
| 20260508125852 | 63 | 235 | 0.0 | 0.0 | 0.00 | 0.00 | 0.00 | 86 | 1017.5 |
| 20260508125348 | 63 | 235 | 0.0 | 0.0 | 0.00 | 0.00 | 0.00 | 86 | 1017.6 |
| 20260508124846 | 63 | 235 | 0.0 | 0.0 | 0.00 | 0.00 | 0.00 | 86 | 1017.5 |
| 20260508124343 | 63 | 226 | 0.0 | 0.0 | 0.00 | 0.00 | 0.00 | 85 | 1017.7 |
| 20260508123841 | 62 | 225 | 0.0 | 0.0 | 0.00 | 0.00 | 0.00 | 85 | 1017.5 |
| 20260508123340 | 62 | 225 | 0.0 | 0.0 | 0.00 | 0.00 | 0.00 | 85 | 1017.6 |
| 20260508122836 | 62 | 225 | 0.0 | 0.0 | 0.00 | 0.00 | 0.00 | 85 | 1017.4 |
| 20260508122332 | 62 | 216 | 0.0 | 0.0 | 0.00 | 0.00 | 0.00 | 86 | 1017.6 |
| 20260508121830 | 62 | 225 | 0.0 | 0.0 | 0.00 | 0.00 | 0.00 | 86 | 1017.5 |
| 20260508121328 | 62 | 241 | 0.0 | 0.0 | 0.00 | 0.00 | 0.00 | 86 | 1017.2 |
| 20260508120826 | 62 | 248 | 0.0 | 0.0 | 0.00 | 0.00 | 0.00 | 87 | 1017.7 |
| 20260508120323 | 62 | 228 | 0.0 | 0.0 | 0.00 | 0.00 | 0.00 | 88 | 1017.6 |
| 20260508115820 | 62 | 226 | 0.0 | 0.0 | 0.00 | 0.00 | 0.00 | 88 | 1017.7 |
| 20260508115318 | 62 | 226 | 0.0 | 0.0 | 0.00 | 0.00 | 0.00 | 88 | 1017.7 |
| 20260508114814 | 62 | 225 | 0.9 | 0.9 | 0.00 | 0.00 | 0.00 | 88 | 1017.9 |
| 20260508114311 | 62 | 249 | 0.0 | 0.0 | 0.00 | 0.00 | 0.00 | 88 | 1018.1 |
| 20260508113808 | 62 | 249 | 0.0 | 0.0 | 0.00 | 0.00 | 0.00 | 88 | 1018.1 |
| 20260508113306 | 62 | 249 | 0.0 | 0.0 | 0.00 | 0.00 | 0.00 | 88 | 1018.0 |
| 20260508112802 | 62 | 249 | 0.0 | 0.0 | 0.00 | 0.00 | 0.00 | 88 | 1018.0 |
| 20260508112259 | 62 | 249 | 0.0 | 0.0 | 0.00 | 0.00 | 0.00 | 87 | 1018.0 |
| 20260508111755 | 62 | 249 | 0.0 | 0.0 | 0.00 | 0.00 | 0.00 | 87 | 1018.0 |
| 20260508111254 | 62 | 249 | 0.0 | 0.0 | 0.00 | 0.00 | 0.00 | 87 | 1017.6 |
| 20260508110750 | 62 | 249 | 0.0 | 0.0 | 0.00 | 0.00 | 0.00 | 87 | 1017.9 |
| 20260508110248 | 62 | 249 | 0.0 | 0.0 | 0.00 | 0.00 | 0.00 | 87 | 1017.9 |
| 20260508105747 | 62 | 249 | 0.0 | 0.0 | 0.00 | 0.00 | 0.00 | 87 | 1018.1 |
| 20260508105244 | 62 | 249 | 0.0 | 0.0 | 0.00 | 0.00 | 0.00 | 87 | 1017.5 |
| 20260508104742 | 62 | 249 | 0.0 | 0.0 | 0.00 | 0.00 | 0.00 | 87 | 1017.6 |
| 20260508104238 | 62 | 249 | 0.0 | 0.0 | 0.00 | 0.00 | 0.00 | 87 | 1017.5 |
| 20260508103736 | 62 | 248 | 0.9 | 0.9 | 0.00 | 0.00 | 0.00 | 87 | 1017.5 |
| 20260508103232 | 62 | 249 | 0.0 | 0.0 | 0.00 | 0.00 | 0.00 | 87 | 1017.4 |
| 20260508102730 | 62 | 249 | 0.0 | 0.0 | 0.00 | 0.00 | 0.00 | 87 | 1017.5 |
| 20260508102228 | 62 | 249 | 0.0 | 0.0 | 0.00 | 0.00 | 0.00 | 87 | 1017.8 |
| 20260508101725 | 62 | 258 | 0.9 | 1.7 | 0.00 | 0.00 | 0.00 | 87 | 1017.7 |
| 20260508101222 | 62 | 227 | 0.0 | 0.0 | 0.00 | 0.00 | 0.00 | 88 | 1017.8 |
| 20260508100720 | 62 | 227 | 0.9 | 1.7 | 0.00 | 0.00 | 0.00 | 87 | 1018.0 |
| 20260508100218 | 62 | 227 | 0.0 | 0.9 | 0.00 | 0.00 | 0.00 | 87 | 1018.1 |
| 20260508095713 | 62 | 227 | 0.0 | 0.0 | 0.00 | 0.00 | 0.00 | 87 | 1018.3 |
| 20260508095212 | 62 | 249 | 0.0 | 0.0 | 0.00 | 0.00 | 0.00 | 86 | 1018.2 |
| 20260508094708 | 62 | 249 | 0.0 | 0.0 | 0.00 | 0.00 | 0.00 | 86 | 1018.2 |
| 20260508094205 | 62 | 215 | 0.0 | 0.0 | 0.00 | 0.00 | 0.00 | 86 | 1018.1 |
| 20260508093702 | 62 | 215 | 0.0 | 0.0 | 0.00 | 0.00 | 0.00 | 86 | 1018.0 |
| 20260508093200 | 62 | 215 | 0.0 | 0.0 | 0.00 | 0.00 | 0.00 | 86 | 1018.1 |
| 20260508092656 | 62 | 215 | 0.0 | 0.0 | 0.00 | 0.00 | 0.00 | 86 | 1018.0 |
| 20260508092155 | 62 | 215 | 0.0 | 0.0 | 0.00 | 0.00 | 0.00 | 86 | 1018.2 |
| 20260508091652 | 62 | 215 | 0.0 | 0.0 | 0.00 | 0.00 | 0.00 | 86 | 1018.0 |
| 20260508091149 | 62 | 215 | 0.0 | 0.0 | 0.00 | 0.00 | 0.00 | 86 | 1017.9 |
| 20260508090647 | 62 | 215 | 0.0 | 0.0 | 0.00 | 0.00 | 0.00 | 86 | 1017.8 |
| 20260508090144 | 62 | 216 | 0.0 | 0.0 | 0.00 | 0.00 | 0.00 | 86 | 1017.7 |
| 20260508085639 | 62 | 216 | 0.0 | 0.0 | 0.00 | 0.00 | 0.00 | 85 | 1017.7 |
| 20260508085137 | 62 | 216 | 0.0 | 0.0 | 0.00 | 0.00 | 0.00 | 85 | 1017.8 |
| 20260508084633 | 62 | 216 | 0.0 | 0.0 | 0.00 | 0.00 | 0.00 | 85 | 1017.6 |
| 20260508084131 | 62 | 216 | 0.0 | 0.0 | 0.00 | 0.00 | 0.00 | 85 | 1017.7 |
| 20260508083628 | 62 | 215 | 0.0 | 0.0 | 0.00 | 0.00 | 0.00 | 84 | 1017.7 |
| 20260508083125 | 62 | 215 | 0.0 | 0.0 | 0.00 | 0.00 | 0.00 | 84 | 1017.7 |
| 20260508082620 | 62 | 215 | 0.0 | 0.0 | 0.00 | 0.00 | 0.00 | 85 | 1017.9 |
| 20260508082119 | 62 | 215 | 0.0 | 0.0 | 0.00 | 0.00 | 0.00 | 84 | 1017.7 |
| 20260508081616 | 62 | 215 | 0.0 | 0.0 | 0.00 | 0.00 | 0.00 | 84 | 1017.8 |
| 20260508081112 | 62 | 215 | 0.0 | 0.0 | 0.00 | 0.00 | 0.00 | 84 | 1017.8 |
| 20260508080609 | 62 | 215 | 0.0 | 0.0 | 0.00 | 0.00 | 0.00 | 84 | 1018.0 |
| 20260508080108 | 62 | 215 | 0.0 | 0.0 | 0.00 | 0.00 | 0.00 | 84 | 1018.0 |
| 20260508075603 | 62 | 215 | 0.0 | 0.0 | 0.00 | 0.00 | 0.00 | 84 | 1017.9 |
| 20260508075101 | 62 | 216 | 0.0 | 0.0 | 0.00 | 0.00 | 0.00 | 84 | 1017.8 |
| 20260508074558 | 62 | 216 | 0.0 | 0.0 | 0.00 | 0.00 | 0.00 | 84 | 1017.7 |
| 20260508074055 | 62 | 216 | 0.0 | 0.0 | 0.00 | 0.00 | 0.00 | 84 | 1017.7 |
| 20260508073552 | 62 | 215 | 0.0 | 0.0 | 0.00 | 0.00 | 0.00 | 84 | 1017.8 |
| 20260508073050 | 62 | 216 | 0.0 | 0.0 | 0.00 | 0.00 | 0.00 | 84 | 1017.7 |
| 20260508072545 | 62 | 215 | 0.0 | 0.0 | 0.00 | 0.00 | 0.00 | 84 | 1017.6 |
| 20260508072042 | 62 | 205 | 0.9 | 0.9 | 0.00 | 0.00 | 0.00 | 85 | 1017.6 |
| 20260508071541 | 62 | 205 | 0.0 | 0.0 | 0.00 | 0.00 | 0.00 | 85 | 1017.9 |
| 20260508071038 | 62 | 205 | 0.0 | 0.0 | 0.00 | 0.00 | 0.00 | 85 | 1018.0 |
| 20260508070536 | 62 | 250 | 0.0 | 0.0 | 0.00 | 0.00 | 0.00 | 87 | 1017.9 |
| 20260508070034 | 61 | 250 | 0.0 | 0.0 | 0.00 | 0.00 | 0.00 | 87 | 1017.5 |
| 20260508065531 | 61 | 250 | 0.0 | 0.9 | 0.00 | 0.00 | 0.00 | 88 | 1017.8 |
| 20260508065029 | 61 | 250 | 0.0 | 0.0 | 0.00 | 0.00 | 0.00 | 88 | 1017.9 |
| 20260508064527 | 61 | 250 | 0.0 | 0.0 | 0.00 | 0.00 | 0.00 | 88 | 1018.4 |
| 20260508064024 | 61 | 250 | 0.0 | 0.0 | 0.00 | 0.00 | 0.00 | 89 | 1018.6 |
| 20260508063521 | 61 | 250 | 0.0 | 0.0 | 0.00 | 0.00 | 0.00 | 89 | 1018.3 |
| 20260508063019 | 61 | 250 | 0.0 | 0.0 | 0.00 | 0.00 | 0.00 | 89 | 1018.2 |
| 20260508062516 | 61 | 250 | 0.0 | 0.0 | 0.00 | 0.00 | 0.00 | 89 | 1018.1 |